Time,TemperatureF,DewpointF,PressureIn,WindDirection,WindDirectionDegrees,WindSpeedMPH,WindSpeedGustMPH,Humidity,HourlyPrecipIn,Conditions,Clouds,dailyrainin,SoftwareType,DateUTC
2013-01-17 00:00:00,38.0,35.0,-100.00,WNW,288,8.0,13.0,86,-99.99,,,-99.99,,2013-01-17 05:00:00,
2013-01-17 00:22:00,38.0,35.0,-100.00,WNW,288,8.0,13.0,86,-99.99,,,-99.99,,2013-01-17 05:22:00,
2013-01-17 00:33:00,38.0,35.0,-100.00,WNW,288,8.0,13.0,86,-99.99,,,-99.99,,2013-01-17 05:33:00,
2013-01-17 00:43:00,38.0,35.0,-100.00,WNW,288,8.0,13.0,86,-99.99,,,-99.99,,2013-01-17 05:43:00,
2013-01-17 00:53:00,38.0,35.0,-100.00,WNW,288,8.0,13.0,86,-99.99,,,-99.99,,2013-01-17 05:53:00,
2013-01-17 01:00:00,39.0,35.0,-100.00,SW,235,5.0,12.0,85,-99.99,,,-99.99,,2013-01-17 06:00:00,
2013-01-17 01:22:00,39.0,35.0,-100.00,SW,235,5.0,12.0,85,-99.99,,,-99.99,,2013-01-17 06:22:00,
2013-01-17 01:33:00,39.0,35.0,-100.00,SW,235,5.0,12.0,85,-99.99,,,-99.99,,2013-01-17 06:33:00,
2013-01-17 01:42:00,39.0,35.0,-100.00,SW,235,5.0,12.0,85,-99.99,,,-99.99,,2013-01-17 06:42:00,
2013-01-17 01:53:00,39.0,35.0,-100.00,SW,235,5.0,12.0,85,-99.99,,,-99.99,,2013-01-17 06:53:00,
2013-01-17 02:00:00,39.0,34.0,-100.00,West,270,5.0,11.0,83,-99.99,,,-99.99,,2013-01-17 07:00:00,
2013-01-17 02:22:00,39.0,34.0,-100.00,West,270,5.0,11.0,83,-99.99,,,-99.99,,2013-01-17 07:22:00,
2013-01-17 02:33:00,39.0,34.0,-100.00,West,270,5.0,11.0,83,-99.99,,,-99.99,,2013-01-17 07:33:00,
2013-01-17 02:43:00,39.0,34.0,-100.00,West,270,5.0,11.0,83,-99.99,,,-99.99,,2013-01-17 07:43:00,
2013-01-17 02:53:00,39.0,34.0,-100.00,West,270,5.0,11.0,83,-99.99,,,-99.99,,2013-01-17 07:53:00,
2013-01-17 03:00:00,39.0,34.0,-100.00,WNW,290,8.0,12.0,81,-99.99,,,-99.99,,2013-01-17 08:00:00,
2013-01-17 03:22:00,39.0,34.0,-100.00,WNW,290,8.0,12.0,81,-99.99,,,-99.99,,2013-01-17 08:22:00,
2013-01-17 03:32:00,39.0,34.0,-100.00,WNW,290,8.0,12.0,81,-99.99,,,-99.99,,2013-01-17 08:32:00,
2013-01-17 03:43:00,39.0,34.0,-100.00,WNW,290,8.0,12.0,81,-99.99,,,-99.99,,2013-01-17 08:43:00,
2013-01-17 03:53:00,39.0,34.0,-100.00,WNW,290,8.0,12.0,81,-99.99,,,-99.99,,2013-01-17 08:53:00,
2013-01-17 04:00:00,39.0,34.0,-100.00,West,261,5.0,11.0,81,-99.99,,,-99.99,,2013-01-17 09:00:00,
2013-01-17 04:22:00,39.0,34.0,-100.00,West,261,5.0,11.0,81,-99.99,,,-99.99,,2013-01-17 09:22:00,
2013-01-17 04:33:00,39.0,34.0,-100.00,West,261,5.0,11.0,81,-99.99,,,-99.99,,2013-01-17 09:33:00,
2013-01-17 04:43:00,39.0,34.0,-100.00,West,261,5.0,11.0,81,-99.99,,,-99.99,,2013-01-17 09:43:00,
2013-01-17 04:53:00,39.0,34.0,-100.00,West,261,5.0,11.0,81,-99.99,,,-99.99,,2013-01-17 09:53:00,
2013-01-17 05:00:00,39.0,33.0,-100.00,SW,235,3.0,8.0,80,-99.99,,,-99.99,,2013-01-17 10:00:00,
2013-01-17 05:33:00,39.0,33.0,-100.00,SW,235,3.0,8.0,80,-99.99,,,-99.99,,2013-01-17 10:33:00,
2013-01-17 05:43:00,39.0,33.0,-100.00,SW,235,3.0,8.0,80,-99.99,,,-99.99,,2013-01-17 10:43:00,
2013-01-17 05:53:00,39.0,33.0,-100.00,SW,235,3.0,8.0,80,-99.99,,,-99.99,,2013-01-17 10:53:00,
2013-01-17 06:00:00,38.0,32.0,-100.00,NW,305,4.0,10.0,78,-99.99,,,-99.99,,2013-01-17 11:00:00,
2013-01-17 06:23:00,38.0,32.0,-100.00,NW,305,4.0,10.0,78,-99.99,,,-99.99,,2013-01-17 11:23:00,
2013-01-17 06:33:00,38.0,32.0,-100.00,NW,305,4.0,10.0,78,-99.99,,,-99.99,,2013-01-17 11:33:00,
2013-01-17 06:43:00,38.0,32.0,-100.00,NW,305,4.0,10.0,78,-99.99,,,-99.99,,2013-01-17 11:43:00,
2013-01-17 06:53:00,38.0,32.0,-100.00,NW,305,4.0,10.0,78,-99.99,,,-99.99,,2013-01-17 11:53:00,
2013-01-17 07:00:00,39.0,31.0,-100.00,West,281,3.0,11.0,72,-99.99,,,-99.99,,2013-01-17 12:00:00,
2013-01-17 07:23:00,39.0,31.0,-100.00,West,281,3.0,11.0,72,-99.99,,,-99.99,,2013-01-17 12:23:00,
2013-01-17 07:33:00,39.0,31.0,-100.00,West,281,3.0,11.0,72,-99.99,,,-99.99,,2013-01-17 12:33:00,
2013-01-17 07:43:00,39.0,31.0,-100.00,West,281,3.0,11.0,72,-99.99,,,-99.99,,2013-01-17 12:43:00,
2013-01-17 07:53:00,39.0,31.0,-100.00,West,281,3.0,11.0,72,-99.99,,,-99.99,,2013-01-17 12:53:00,
2013-01-17 08:00:00,38.0,29.0,-100.00,WNW,299,5.0,11.0,69,-99.99,,,-99.99,,2013-01-17 13:00:00,
2013-01-17 08:23:00,38.0,29.0,-100.00,WNW,299,5.0,11.0,69,-99.99,,,-99.99,,2013-01-17 13:23:00,
2013-01-17 08:33:00,38.0,29.0,-100.00,WNW,299,5.0,11.0,69,-99.99,,,-99.99,,2013-01-17 13:33:00,
2013-01-17 08:43:00,38.0,29.0,-100.00,WNW,299,5.0,11.0,69,-99.99,,,-99.99,,2013-01-17 13:43:00,
2013-01-17 08:53:00,38.0,29.0,-100.00,WNW,299,5.0,11.0,69,-99.99,,,-99.99,,2013-01-17 13:53:00,
2013-01-17 09:00:00,39.0,29.0,-100.00,NW,320,8.0,12.0,67,-99.99,,,-99.99,,2013-01-17 14:00:00,
2013-01-17 09:23:00,39.0,29.0,-100.00,NW,320,8.0,12.0,67,-99.99,,,-99.99,,2013-01-17 14:23:00,
2013-01-17 09:33:00,39.0,29.0,-100.00,NW,320,8.0,12.0,67,-99.99,,,-99.99,,2013-01-17 14:33:00,
2013-01-17 09:43:00,39.0,29.0,-100.00,NW,320,8.0,12.0,67,-99.99,,,-99.99,,2013-01-17 14:43:00,
2013-01-17 09:53:00,39.0,29.0,-100.00,NW,320,8.0,12.0,67,-99.99,,,-99.99,,2013-01-17 14:53:00,
2013-01-17 10:00:00,39.0,29.0,-100.00,NW,315,5.0,13.0,67,-99.99,,,-99.99,,2013-01-17 15:00:00,
2013-01-17 10:23:00,39.0,29.0,-100.00,NW,315,5.0,13.0,67,-99.99,,,-99.99,,2013-01-17 15:23:00,
2013-01-17 10:33:00,39.0,29.0,-100.00,NW,315,5.0,13.0,67,-99.99,,,-99.99,,2013-01-17 15:33:00,
2013-01-17 10:43:00,39.0,29.0,-100.00,NW,315,5.0,13.0,67,-99.99,,,-99.99,,2013-01-17 15:43:00,
2013-01-17 10:53:00,39.0,29.0,-100.00,NW,315,5.0,13.0,67,-99.99,,,-99.99,,2013-01-17 15:53:00,
2013-01-17 11:00:00,40.0,28.0,-100.00,WNW,294,5.0,11.0,62,-99.99,,,-99.99,,2013-01-17 16:00:00,
2013-01-17 11:23:00,40.0,28.0,-100.00,WNW,294,5.0,11.0,62,-99.99,,,-99.99,,2013-01-17 16:23:00,
2013-01-17 11:34:00,40.0,28.0,-100.00,WNW,294,5.0,11.0,62,-99.99,,,-99.99,,2013-01-17 16:34:00,
2013-01-17 11:44:00,40.0,28.0,-100.00,WNW,294,5.0,11.0,62,-99.99,,,-99.99,,2013-01-17 16:44:00,
2013-01-17 11:53:00,40.0,28.0,-100.00,WNW,294,5.0,11.0,62,-99.99,,,-99.99,,2013-01-17 16:53:00,
2013-01-17 12:00:00,42.0,28.0,-100.00,NW,325,11.0,13.0,57,-99.99,,,-99.99,,2013-01-17 17:00:00,
2013-01-17 12:23:00,42.0,28.0,-100.00,NW,325,11.0,13.0,57,-99.99,,,-99.99,,2013-01-17 17:23:00,
2013-01-17 12:33:00,42.0,28.0,-100.00,NW,325,11.0,13.0,57,-99.99,,,-99.99,,2013-01-17 17:33:00,
2013-01-17 12:43:00,42.0,28.0,-100.00,NW,325,11.0,13.0,57,-99.99,,,-99.99,,2013-01-17 17:43:00,
2013-01-17 12:54:00,42.0,28.0,-100.00,NW,325,11.0,13.0,57,-99.99,,,-99.99,,2013-01-17 17:54:00,
2013-01-17 14:00:00,42.0,28.0,-100.00,NW,315,6.0,16.0,56,-99.99,,,-99.99,,2013-01-17 19:00:00,
2013-01-17 14:23:00,42.0,28.0,-100.00,NW,315,6.0,16.0,56,-99.99,,,-99.99,,2013-01-17 19:23:00,
2013-01-17 14:33:00,42.0,28.0,-100.00,NW,315,6.0,16.0,56,-99.99,,,-99.99,,2013-01-17 19:33:00,
2013-01-17 14:43:00,42.0,28.0,-100.00,NW,315,6.0,16.0,56,-99.99,,,-99.99,,2013-01-17 19:43:00,
2013-01-17 14:54:00,42.0,28.0,-100.00,NW,315,6.0,16.0,56,-99.99,,,-99.99,,2013-01-17 19:54:00,
2013-01-17 15:00:00,43.0,27.0,-100.00,NW,305,8.0,14.0,54,-99.99,,,-99.99,,2013-01-17 20:00:00,
2013-01-17 15:33:00,43.0,27.0,-100.00,NW,305,8.0,14.0,54,-99.99,,,-99.99,,2013-01-17 20:33:00,
2013-01-17 15:43:00,43.0,27.0,-100.00,NW,305,8.0,14.0,54,-99.99,,,-99.99,,2013-01-17 20:43:00,
2013-01-17 15:54:00,43.0,27.0,-100.00,NW,305,8.0,14.0,54,-99.99,,,-99.99,,2013-01-17 20:54:00,
2013-01-17 16:00:00,42.0,28.0,-100.00,NNW,332,2.0,13.0,55,-99.99,,,-99.99,,2013-01-17 21:00:00,
2013-01-17 16:23:00,42.0,28.0,-100.00,NNW,332,2.0,13.0,55,-99.99,,,-99.99,,2013-01-17 21:23:00,
2013-01-17 16:34:00,42.0,28.0,-100.00,NNW,332,2.0,13.0,55,-99.99,,,-99.99,,2013-01-17 21:34:00,
2013-01-17 16:43:00,42.0,28.0,-100.00,NNW,332,2.0,13.0,55,-99.99,,,-99.99,,2013-01-17 21:43:00,
2013-01-17 16:53:00,42.0,28.0,-100.00,NNW,332,2.0,13.0,55,-99.99,,,-99.99,,2013-01-17 21:53:00,
2013-01-17 17:00:00,42.0,28.0,-100.00,NW,317,0.0,4.0,59,-99.99,,,-99.99,,2013-01-17 22:00:00,
2013-01-17 17:23:00,42.0,28.0,-100.00,NW,317,0.0,4.0,59,-99.99,,,-99.99,,2013-01-17 22:23:00,
2013-01-17 17:33:00,42.0,28.0,-100.00,NW,317,0.0,4.0,59,-99.99,,,-99.99,,2013-01-17 22:33:00,
2013-01-17 17:43:00,42.0,28.0,-100.00,NW,317,0.0,4.0,59,-99.99,,,-99.99,,2013-01-17 22:43:00,
2013-01-17 17:53:00,42.0,28.0,-100.00,NW,317,0.0,4.0,59,-99.99,,,-99.99,,2013-01-17 22:53:00,
2013-01-17 18:00:00,41.0,29.0,-100.00,West,261,0.0,3.0,63,-99.99,,,-99.99,,2013-01-17 23:00:00,
2013-01-17 18:23:00,41.0,29.0,-100.00,West,261,0.0,3.0,63,-99.99,,,-99.99,,2013-01-17 23:23:00,
2013-01-17 18:33:00,41.0,29.0,-100.00,West,261,0.0,3.0,63,-99.99,,,-99.99,,2013-01-17 23:33:00,
2013-01-17 18:43:00,41.0,29.0,-100.00,West,261,0.0,3.0,63,-99.99,,,-99.99,,2013-01-17 23:43:00,
2013-01-17 18:53:00,41.0,29.0,-100.00,West,261,0.0,3.0,63,-99.99,,,-99.99,,2013-01-17 23:53:00,
2013-01-17 19:00:00,41.0,28.0,-100.00,NNW,345,1.0,4.0,60,-99.99,,,-99.99,,2013-01-18 00:00:00,
2013-01-17 19:23:00,41.0,28.0,-100.00,NNW,345,1.0,4.0,60,-99.99,,,-99.99,,2013-01-18 00:23:00,
2013-01-17 19:33:00,41.0,28.0,-100.00,NNW,345,1.0,4.0,60,-99.99,,,-99.99,,2013-01-18 00:33:00,
2013-01-17 19:43:00,41.0,28.0,-100.00,NNW,345,1.0,4.0,60,-99.99,,,-99.99,,2013-01-18 00:43:00,
2013-01-17 19:53:00,41.0,28.0,-100.00,NNW,345,1.0,4.0,60,-99.99,,,-99.99,,2013-01-18 00:53:00,
2013-01-17 20:00:00,40.0,27.0,-100.00,NW,312,3.0,5.0,60,-99.99,,,-99.99,,2013-01-18 01:00:00,
2013-01-17 20:33:00,40.0,27.0,-100.00,NW,312,3.0,5.0,60,-99.99,,,-99.99,,2013-01-18 01:33:00,
2013-01-17 20:43:00,40.0,27.0,-100.00,NW,312,3.0,5.0,60,-99.99,,,-99.99,,2013-01-18 01:43:00,
2013-01-17 20:53:00,40.0,27.0,-100.00,NW,312,3.0,5.0,60,-99.99,,,-99.99,,2013-01-18 01:53:00,
2013-01-17 22:00:00,39.0,30.0,-100.00,NNW,337,3.0,3.0,72,-99.99,,,-99.99,,2013-01-18 03:00:00,
2013-01-17 22:23:00,39.0,30.0,-100.00,NNW,337,3.0,3.0,72,-99.99,,,-99.99,,2013-01-18 03:23:00,
2013-01-17 22:33:00,39.0,30.0,-100.00,NNW,337,3.0,3.0,72,-99.99,,,-99.99,,2013-01-18 03:33:00,
2013-01-17 22:43:00,39.0,30.0,-100.00,NNW,337,3.0,3.0,72,-99.99,,,-99.99,,2013-01-18 03:43:00,
2013-01-17 22:53:00,39.0,30.0,-100.00,NNW,337,3.0,3.0,72,-99.99,,,-99.99,,2013-01-18 03:53:00,
2013-01-17 23:00:00,39.0,27.0,-100.00,North,10,5.0,9.0,63,-99.99,,,-99.99,,2013-01-18 04:00:00,
2013-01-17 23:22:00,39.0,27.0,-100.00,North,10,5.0,9.0,63,-99.99,,,-99.99,,2013-01-18 04:22:00,
2013-01-17 23:33:00,39.0,27.0,-100.00,North,10,5.0,9.0,63,-99.99,,,-99.99,,2013-01-18 04:33:00,
2013-01-17 23:43:00,39.0,27.0,-100.00,North,10,5.0,9.0,63,-99.99,,,-99.99,,2013-01-18 04:43:00,
2013-01-17 23:53:00,39.0,27.0,-100.00,North,10,5.0,9.0,63,-99.99,,,-99.99,,2013-01-18 04:53:00,